Location: Moores Corner
(35.0460°N, 76.6910°W)
Time: 06:30:25
(UTC+00:00)

Daily predictions for brighter satellites

Satellite Brightness Start Highest point End
(mag) Time Altitude Azimuth Time Altitude Azimuth Time Altitude Azimuth
USA 229 DEB 3.6 22:17:20 10° SSW 22:23:48 79° ESE 22:30:34 10° NNE
USA 229 3.6 22:17:26 10° SSW 22:23:54 78° ESE 22:30:39 10° NE
Cosmos 2227 Rocket 3.3 22:20:00 10° N 22:24:27 23° ENE 22:28:52 10° ESE
Cosmos 2297 Rocket 3.2 22:20:08 10° N 22:24:45 25° ENE 22:29:20 10° ESE
Cosmos 1500 Rocket 3.5 22:21:17 10° N 22:25:38 66° E 22:29:56 10° SSE
ALOS 4.2 22:23:01 10° SSW 22:27:16 35° W 22:31:33 10° NNW
NOSS 3-1 (A) 3.6 22:24:18 10° S 22:29:19 44° ESE 22:34:54 10° NE
NOSS 3-1 (C) 3.2 22:24:41 10° SSW 22:30:01 78° ESE 22:36:00 10° NNE
OE (NEXTSAT) 4.4 22:27:27 10° NW 22:30:55 63° NNE 22:34:20 10° ESE
SMAP 3.0 22:30:42 10° SSE 22:35:19 73° ENE 22:39:58 10° N
Cosmos 2369 4.4 22:30:23 10° SSE 22:35:22 33° ESE 22:40:23 10° NE
PSLV R/B 4.4 22:34:58 10° WNW 22:37:00 21° N 22:39:02 10° NE
Cosmos 2084 4.0 22:35:32 10° NNW 22:39:28 34° NE 22:43:17 10° ESE
COSMO-SKYMED 1 3.3 22:35:32 10° NNE 22:39:28 33° E 22:43:23 10° SSE
Geosat 4.2 22:35:23 10° NNE 22:40:26 79° WNW 22:45:26 10° SSW
Cosmos 1680 Rocket 4.5 22:37:17 10° SSE 22:41:29 26° E 22:45:44 10° NE
Meteor 2-20 4.4 22:36:26 10° S 22:42:30 74° E 22:48:38 10° N
Meteor 2-2 Rocket 4.3 22:37:43 10° S 22:43:38 88° E 22:49:27 10° N
Sich 1 3.8 22:41:08 10° NNE 22:44:59 30° ENE 22:48:51 10° SE
Cosmos 1151 Rocket 4.4 22:44:05 10° SE 22:47:01 18° E 22:50:00 10° NE
ATLAS 5 CENTAUR R/B 3.8 22:47:30 10° S 22:50:16 15° SE 22:55:06 10° ESE
Cosmos 2278 4.3 22:50:18 10° SSE 22:55:24 36° ESE 23:00:32 10° NE
Cosmos 1697 Rocket 3.0 22:50:47 10° S 22:56:10 47° ESE 23:01:34 10° NNE
Cosmos 1238 Rocket 3.4 22:52:40 10° NNW 22:56:48 59° W 23:00:12 10° S
Cosmos 1356 Rocket 3.3 22:54:19 10° S 22:58:25 87° E 23:02:37 10° N
YAOGAN 1 3.5 22:58:46 10° SE 23:02:22 26° ENE 23:05:59 10° NNE
Cosmos 1607 4.1 22:57:43 10° NNW 23:03:48 52° ENE 23:09:54 10° SE
Cosmos 923 Rocket 4.0 23:00:32 10° S 23:05:40 62° ESE 23:10:49 10° NNE
ATLAS 5 CENTAUR R/B 2.7 23:00:14 10° NNW 23:06:02 48° NE 23:12:33 10° SE
Lacrosse 4 Rocket 1.2 23:02:18 10° SSW 23:06:23 76° ESE 23:10:05 12° NNE
NOSS 2-3 (C) 3.6 23:05:13 10° SSW 23:09:22 61° ESE 23:12:49 17° NE
USA 40 PKM 4.2 23:07:33 10° NW 23:12:06 89° NNE 23:15:27 10° SE
Okean-O 2.9 23:09:03 10° S 23:13:26 72° WSW 23:17:53 10° NNW
NOAA 12 4.2 23:08:09 10° S 23:13:28 81° WSW 23:18:50 10° NNW
Cosmos 1633 2.7 23:11:12 10° N 23:14:45 49° E 23:18:16 10° SSE
USA 116 4.3 23:14:19 10° NNE 23:19:00 63° ESE 23:24:05 10° S
CZ-4 R/B 1.4 23:16:33 10° SSE 23:20:40 57° ENE 23:24:44 10° N
GPS 2-04 Rocket1 3.8 23:21:48 10° SSW 23:24:32 22° SSE 23:24:53 22° SE
SKYMED 2 4.0 23:23:20 10° N 23:27:38 63° WNW 23:31:55 10° SSW
Cosmos 2346 Rocket 4.5 23:22:15 10° S 23:28:20 57° E 23:34:24 10° NNE
YAOGAN 6 2.4 23:25:47 10° SSE 23:29:17 88° ENE 23:32:47 10° N
Cosmos 1513 Rocket 4.5 23:27:09 10° N 23:33:36 86° E 23:39:55 10° S
CSL-04 Debris 4.1 23:28:20 10° SSE 23:33:44 64° ENE 23:39:10 10° N
Cosmos 2034 Rocket 4.0 23:30:20 10° N 23:36:39 65° E 23:42:58 10° SSE
Meteor 2-11 Rocket 4.3 23:36:16 10° N 23:42:23 68° E 23:48:28 10° SSE
DMSP B5D1-3 4.4 23:38:53 12° NNE 23:43:39 71° ESE 23:48:46 10° S
Envisat 4.0 23:40:50 10° S 23:45:42 46° W 23:50:35 10° NNW
Tsikada Rocket 3.9 23:45:39 10° S 23:51:57 78° E 23:58:21 10° N
CSL-04 Rocket 3.6 23:47:04 10° SSE 23:52:28 86° WSW 23:57:50 10° NNW
APEX 3.4 23:51:53 10° SSW 23:55:24 62° SW 23:55:24 62° SW
